DECAYED
Showing default

TIANHUI 1-03, 40988 (Decayed)

Orbit data source: Space-Track

TIANHUI 1-03, 40988 was a payload satellite owned by G. Cehui dili (CN) in LEO that was launched on Mon, 26 Oct 2015 UTC via a CHANG ZHENG 2D launch vehicle from the Jiuquan Satellite Launch Center, China (JSC). Payload-class satellites include a variety of spacecraft equipped with specific instruments for various scientific and technological missions. These include communications satellites like Starlink; space stations such as the ISS; scientific satellites like the Hubble; Earth observation satellites from companies like Planet Labs, Umbra, and HawkEye 360; GPS; miniature CubeSats for education and research; and military/defense satellites.

Not visible in the next 10 days
Identifier
40988, 2015-061A
Orbit
Decayed
Country
Flag of CNCN / PRC
Related business
Manufacturer
DFH
Mission
Decayed Civil Imaging
Bus & Motor
CAST-2000?, Unknown motor
Mass
~1,000 kg wet, ~1,000 kg dry
Launch date (UTC)
2015-10-26 (10 years ago)
Launch vehicle
CHANG ZHENG 2D
Launch site
Jiuquan Satellite Launch Center, China (JSC)
Object type
Payload
Rocket body
Debris
Shape & HBR
Box + 2 Pan, 1.5 m
Radar Cross Section
2.045 m², Large (>1 m²)

Expand to show TLE details & history
Last TLE update: 6 months ago

TLE from 6 months ago
0 TIANHUI 1-03
1 40988U 15061A   25268.37930935  .09055814  26555-5  22840-3 0  9993
2 40988  97.5071  68.4308 0011155 257.2829 102.7227 16.45126035553420
Epoch: 2025-09-25T09:06Z
TLE epoch observation values (Epoch: 2025-09-25T09:06:12.327Z)
Latitude
0.00004°
Longitude
-72.56185°
Altitude
157.069 km
Speed
7.811 km/s
True Right ascension
04h 33m 43s
True Declination
0° 00' 00"
Sunlit
Object was in full shadow at epoch
Visualization orbit readout
Latitude
Unknown
Longitude
Unknown
Altitude
Unknown
Speed
Unknown
Apparent Right ascension
Unknown
Apparent Declination
Unknown
Sunlit
N/A
Visualization observer readout
Local Sidereal Time
21:50:04
Azimuth
Unknown
Elevation
Unknown
Doppler factor
Unknown
Orbital elements
Apogee altitude
156.289 km
Perigee altitude
141.727 km
Semi-major axis
6,527.145 km
Eccentricity
0.00112
Inclination
97.5071°
RAAN
68.4308°
Arg. of periapsis
257.2829°
True anomaly
102.84735°
Mean anomaly
102.7227°
Eccentric anomaly
102.78503°
Mean motion
4.11584 °/min
Orbital period
87.47 mins
BSTAR
0.0002284
Loading maneuver chart data...
Computing Atmospheric mass density...
Loading historical data...
Loading historical data...
Loading historical data...
Loading historical data...
Loading historical data...
Loading historical data...
Loading historical data...
Other satellites on launch #61 in the year 2015 (2015-10-26 UTC)

Documentation

Showing up to 5 results
|